STARLINK-30256 (57522 NORAD) Tracking and Keplerian Element Data

This shows tracking and keplerian element data for the satellite.

Feedback or suggestion? Click here.




ElementValue
Catalog57522
NameSTARLINK-30256
Epoch Orbit387
Epoch Day239.16667824
Epoch Year2023
RAAN359.5992
Inclination42.9995
Eccentricity0.0001881
Argument of Perigee266.8686
Mean Anonmoly88.1946
Mean Motion15.54715018
Decay Rate-0.01616812
L11 57522U 23115B 23239.16667824 -.01616812 00000+0 -26373-1 0 9990
L22 57522 42.9995 359.5992 0001881 266.8686 88.1946 15.54715018 3874



Live tracking and technical data element details for STARLINK-30256 (NORAD 57522). STARLINK-30256 can be tracked NOW for your location showing map with azimuth and elevation plus other details from your city location.







IsCatalogInMostPopularTable: catalog: 57522, numindb: 6
Update: records affected: 1



GetName: 57522 STARLINK-30256

Hit Count: updated at: Tue, 26 Sep 2023 12:28:15 GMT